Weather History for Charlevoix, MI

Change the Weather History Date:

Monday, October 1, 2012

  Actual Average Record
Temperature  
Mean Temperature 50 °F -  
Max Temperature 64 °F 65 °F 80 °F (2002)
Min Temperature 37 °F 50 °F 37 °F (2003)
Degree Days  
Heating Degree Days 14    
Moisture  
Dew Point 45 °F    
Average Humidity 82    
Maximum Humidity 97    
Minimum Humidity 46    
Precipitation  
Precipitation 0.00 in - - ()
Sea Level Pressure  
Sea Level Pressure 29.93 in    
Wind  
Wind Speed 2 mph (SSW)    
Max Wind Speed 9 mph    
Max Gust Speed -    
Visibility 10 miles    
Events      
Averages and records for this station are not official NWS values.
T = Trace of Precipitation, MM = Missing Value Source: NWS Daily Summary

Daily Weather History Graph

Daily Weather History Graph

Search for Another Location

Airport:

Trip Planner

Search our weather history database for the weather conditions in past years. The results will help you decide how hot, cold, wet, or windy it might be!

Date:

Astronomy

Oct. 01, 2012 Rise Set
Actual Time 7:39 AM EDT 7:20 PM EDT
Civil Twilight 7:10 AM EDT 7:49 PM EDT
Nautical Twilight 6:36 AM EDT 8:24 PM EDT
Astronomical Twilight 6:01 AM EDT 8:58 PM EDT
Moon 7:49 PM EDT (10/1) 9:15 AM EDT (10/1)
Length of Visible Light 12h 39m
Length of Day
11h 40m
Full, 98% of the Moon is Illuminated
Oct 1
Full
Oct 8
Last Quarter
Oct 15
New
Oct 21
First Quarter
Oct 29
Full

Hourly Weather History & Observations

Time (EDT) Temp. Windchill Dew Point Humidity Pressure Visibility Wind Dir Wind Speed Gust Speed Precip Events Conditions
12:15 AM 41.2 °F - 39.7 °F 95% 29.98 in 10.0 mi Calm Calm - N/A   Clear
12:34 AM 41.4 °F - 39.6 °F 93% 29.98 in 10.0 mi Calm Calm - N/A   Clear
12:54 AM 41.2 °F - 39.7 °F 95% 29.97 in 10.0 mi Calm Calm - N/A   Clear
1:14 AM 42.1 °F 39.2 °F 39.4 °F 90% 29.96 in 10.0 mi East 4.6 mph - N/A   Clear
1:34 AM 43.5 °F 39.4 °F 41.9 °F 94% 29.95 in 10.0 mi East 6.9 mph - N/A   Clear
1:54 AM 41.5 °F 38.6 °F 40.3 °F 95% 29.97 in 10.0 mi South 4.6 mph - N/A   Clear
2:14 AM 42.1 °F - 40.3 °F 93% 29.97 in 10.0 mi Calm Calm - N/A   Clear
2:34 AM 42.8 °F - 40.6 °F 92% 29.96 in 10.0 mi Calm Calm - N/A   Clear
2:54 AM 40.5 °F - 38.8 °F 94% 29.96 in 10.0 mi Calm Calm - N/A   Clear
3:34 AM 40.6 °F - 39.0 °F 94% 29.96 in 10.0 mi Calm Calm - N/A   Clear
4:14 AM 39.4 °F 37.2 °F 37.9 °F 95% 29.95 in 10.0 mi East 3.5 mph - N/A   Clear
4:34 AM 38.8 °F 36.5 °F 37.6 °F 95% 29.95 in 10.0 mi SE 3.5 mph - N/A   Clear
4:54 AM 37.8 °F - 36.9 °F 97% 29.94 in 10.0 mi Calm Calm - N/A   Clear
5:14 AM 39.7 °F - 39.0 °F 97% 29.94 in 10.0 mi Calm Calm - N/A   Clear
5:54 AM 39.2 °F 37.0 °F 37.9 °F 95% 29.94 in 10.0 mi ESE 3.5 mph - N/A   Clear
6:14 AM 39.6 °F 37.4 °F 38.5 °F 96% 29.94 in 10.0 mi ESE 3.5 mph - N/A   Clear
6:34 AM 39.2 °F - 37.9 °F 95% 29.94 in 10.0 mi Calm Calm - N/A   Clear
6:54 AM 38.8 °F - 37.8 °F 96% 29.94 in 10.0 mi Calm Calm - N/A   Clear
7:14 AM 39.2 °F 37.0 °F 38.3 °F 97% 29.94 in 10.0 mi ESE 3.5 mph - N/A   Clear
7:34 AM 39.7 °F 37.6 °F 38.5 °F 95% 29.94 in 10.0 mi East 3.5 mph - N/A   Clear
7:54 AM 39.6 °F 37.4 °F 38.5 °F 96% 29.94 in 10.0 mi ESE 3.5 mph - N/A   Clear
8:14 AM 40.3 °F - 39.2 °F 96% 29.94 in 10.0 mi Calm Calm - N/A   Clear
8:34 AM 41.4 °F - 40.1 °F 95% 29.95 in 10.0 mi Calm Calm - N/A   Clear
8:54 AM 43.3 °F 41.7 °F 41.7 °F 94% 29.95 in 10.0 mi East 3.5 mph - N/A   Clear
9:14 AM 45.5 °F 44.2 °F 43.3 °F 92% 29.95 in 10.0 mi ESE 3.5 mph - N/A   Clear
9:34 AM 47.8 °F - 45.0 °F 90% 29.95 in 10.0 mi ESE 3.5 mph - N/A   Clear
9:54 AM 50.2 °F - 46.6 °F 87% 29.95 in 10.0 mi Calm Calm - N/A   Clear
10:14 AM 53.1 °F - 48.2 °F 84% 29.95 in 10.0 mi ESE 3.5 mph - N/A   Clear
10:35 AM 54.5 °F - 48.6 °F 80% 29.95 in 10.0 mi East 4.6 mph - N/A   Clear
10:54 AM 57.2 °F - 47.5 °F 70% 29.95 in 10.0 mi Calm Calm - N/A   Clear
11:14 AM 59.4 °F - 48.6 °F 67% 29.95 in 10.0 mi WSW 5.8 mph - N/A   Clear
11:35 AM 59.9 °F - 47.7 °F 64% 29.95 in 10.0 mi SW 4.6 mph - N/A   Clear
11:54 AM 60.6 °F - 47.1 °F 61% 29.94 in 10.0 mi SW 3.5 mph - N/A   Clear
12:14 PM 62.2 °F - 46.0 °F 55% 29.94 in 10.0 mi West 4.6 mph - N/A   Clear
12:34 PM 61.9 °F - 45.1 °F 54% 29.94 in 10.0 mi SW 3.5 mph - N/A   Clear
1:14 PM 64.4 °F - 43.2 °F 46% 29.94 in 10.0 mi West 8.1 mph - N/A   Clear
1:34 PM 63.9 °F - 44.6 °F 50% 29.93 in 10.0 mi West 6.9 mph - N/A   Clear
1:54 PM 63.5 °F - 42.8 °F 47% 29.93 in 10.0 mi West 6.9 mph - N/A   Clear
2:14 PM 64.0 °F - 45.7 °F 51% 29.92 in 10.0 mi West 8.1 mph - N/A   Clear
2:34 PM 63.7 °F - 45.0 °F 51% 29.91 in 10.0 mi West 8.1 mph - N/A   Clear
2:54 PM 63.1 °F - 45.0 °F 51% 29.91 in 10.0 mi WNW 6.9 mph - N/A   Clear
3:14 PM 63.1 °F - 46.2 °F 54% 29.90 in 10.0 mi West 6.9 mph - N/A   Clear
4:14 PM 62.8 °F - 49.6 °F 62% 29.89 in 10.0 mi West 9.2 mph - N/A   Clear
4:34 PM 62.1 °F - 50.2 °F 65% 29.89 in 10.0 mi West 6.9 mph - N/A   Clear
4:54 PM 61.9 °F - 49.8 °F 65% 29.88 in 10.0 mi West 6.9 mph - N/A   Clear
5:14 PM 61.2 °F - 49.8 °F 66% 29.88 in 10.0 mi West 8.1 mph - N/A   Clear
5:34 PM 61.0 °F - 49.6 °F 66% 29.88 in 10.0 mi West 5.8 mph - N/A   Clear
5:55 PM 60.1 °F - 48.9 °F 67% 29.88 in 10.0 mi West 5.8 mph - N/A   Clear
6:14 PM 59.9 °F - 49.5 °F 68% 29.89 in 10.0 mi West 4.6 mph - N/A   Clear
6:34 PM 59.0 °F - 50.0 °F 72% 29.88 in 10.0 mi West 3.5 mph - N/A   Clear
6:55 PM 58.3 °F - 49.6 °F 73% 29.89 in 10.0 mi Calm Calm - N/A   Clear
7:14 PM 56.8 °F - 50.4 °F 79% 29.89 in 10.0 mi Calm Calm - N/A   Clear
7:34 PM 54.9 °F - 50.9 °F 86% 29.89 in 10.0 mi Calm Calm - N/A   Clear
7:54 PM 53.1 °F - 50.4 °F 91% 29.89 in 10.0 mi Calm Calm - N/A   Clear
8:14 PM 52.9 °F - 50.4 °F 91% 29.89 in 10.0 mi Calm Calm - N/A   Clear
8:34 PM 52.3 °F - 50.4 °F 93% 29.89 in 10.0 mi Calm Calm - N/A   Clear
8:54 PM 51.8 °F - 49.8 °F 93% 29.90 in 10.0 mi Calm Calm - N/A   Clear
9:15 PM 51.3 °F - 49.1 °F 92% 29.90 in 10.0 mi Calm Calm - N/A   Clear
9:34 PM 49.8 °F - 47.8 °F 93% 29.90 in 10.0 mi Calm Calm - N/A   Clear
9:54 PM 50.9 °F - 48.4 °F 91% 29.89 in 10.0 mi Calm Calm - N/A   Clear
10:14 PM 49.1 °F - 47.3 °F 93% 29.89 in 10.0 mi Calm Calm - N/A   Clear
10:34 PM 49.5 °F - 47.8 °F 94% 29.89 in 10.0 mi Calm Calm - N/A   Clear
10:54 PM 48.4 °F - 47.1 °F 95% 29.89 in 10.0 mi SE 3.5 mph - N/A   Clear
11:14 PM 48.2 °F - 47.1 °F 96% 29.90 in 10.0 mi SE 3.5 mph - N/A   Clear
11:34 PM 48.2 °F - 46.8 °F 95% 29.90 in 10.0 mi Calm Calm - N/A   Clear
11:54 PM 47.5 °F - 46.4 °F 96% 29.91 in 10.0 mi Calm Calm - N/A   Clear